[[{"header":{"parameterUnit":"m.s-1","parameterCategory":1,"la1":30.2991,"la2":30.254,"lo1":-89.0895,"lo2":-89.0444,"dy":0.0017,"dx":0.0017,"nx":28,"ny":28,"refTime":"2023-07-31T09:00:00:Z","depth":0,"parameterNumber":2,"parameterNumberName":"U-component_of_WINDS"},"data":[0,0,0,0,0,0,0,0,0,0,0,0,0,0,0,0,0,0,0,0,0,0,0,0,0,0,0,0,0,0,0,0,0,0,0,0,0,0,0,0,0,0,0,0,0,0,0,0,0,0,0,0,0,0,0,0,0,0,0.9995,0.9994,0,0.9929,0.9929,0.9928,0.9851,0.985,0.9849,0.9848,0.9784,0.9783,0.9783,0,0,0,0,0,0,0,0,0,0,0,0,0,1.0054,1.0053,0.9995,0.9994,0.9993,0.9929,0.9929,0.9928,0.9852,0.985,0.9849,0.9847,0.9784,0.9783,0.9783,0,0,0,0,0,0,0,0,0,0,0,0,0,1.0012,1.0053,0.9995,0.9947,0.9942,0.993,0.9929,0.9927,0.9852,0.985,0.9848,0.9847,0.9784,0.9783,0.9783,0.9812,0,0,0.978,0.9779,0,0,0,0,0,0,0,0,1.0015,1.001,0.9955,0.995,0.9945,0.9897,0.9926,0.9889,0.9852,0.9886,0.9848,0.9846,0.9823,0.9819,0.9811,0.9809,0.9806,0.978,0.9779,0.9779,0.9778,0,0,0,0,0,0,0,1.0018,1.0013,0.9969,0.9954,0.9948,0.9929,0.9922,0.9919,0.9865,0.9883,0.9877,0.9871,0.982,0.9812,0.9808,0.9805,0.978,0.9779,0.9778,0.9778,0.9822,0.9824,0,0,0,0,0,0,1.0028,1.0016,0.9971,0.9967,0.9976,0.993,0.9921,0.9914,0.9865,0.9856,0.9872,0.9867,0.9814,0.981,0.9806,0.9835,0.9779,0.9778,0.9777,0.9821,0.9823,0.9824,0,0,0,0,0,0,1.0029,1.0024,0.9974,0.999,0.9982,0.9931,0.9923,0.9914,0.9905,0.9857,0.9847,0.9873,0.9812,0.9807,0.981,0.9832,0.9777,0.9777,0.9819,0.9821,0.9824,0.9896,0,0,0,0,0,0,1.0031,1.0025,1.0036,0.999,0.9981,0.9979,0.9925,0.9914,0.9903,0.9896,0.9855,0.9847,0.9811,0.9812,0.9809,0.983,0.9776,0.9816,0.982,0.9823,0.9891,0.99,0.9908,0,0,0,0,0,1.0034,1.006,1.0037,1.0032,0.9993,0.9981,0.9975,0.9932,0.9906,0.9916,0.9884,0.9848,0.983,0.9813,0.9809,0.983,0.9815,0.9819,0.9823,0.9887,0.9899,0.9908,0,0,0,0,0,0,1.0111,1.0053,1.0027,1.004,1.0015,0.9968,0.9979,0.9946,0.9929,0.9924,0.9872,0.9863,0.9872,0.9851,0.9833,0.9855,0.9817,0.9821,0.9868,0.9878,0.9887,0.9891,0.9775,0,0,0,0,0,1.013,1.0124,1.0074,1.009,1.0078,1.0031,1.0024,0.9993,0.9966,0.9955,0.9924,0.99,0.9888,0.9882,0.9869,0.9888,0.9877,0.99,0.9909,0.9916,0.9919,0.9925,0.9934,0.9837,0.9837,0.9837,0,0,1.0168,1.0136,1.0135,1.0104,1.0082,1.0076,1.0023,1.002,1.0016,0.9955,0.9955,0.9932,0.9901,0.9912,0.9915,0.9895,0.9944,0.9921,0.9927,0.9926,0.993,0.9939,0.9948,0.984,0.9839,0.9839,0,0,1.0235,1.021,1.022,1.0197,1.0163,1.0131,1.0134,1.009,1.0072,1.0071,1.0025,1.0019,1.0001,0.998,0.9967,1.0024,0.9989,1.0021,1.0066,1.0072,1.008,1.0086,1.0105,1.0112,1.0025,1.0025,1.0025,0,1.0287,1.0276,1.0229,1.0228,1.0215,1.0158,1.0167,1.0148,1.0113,1.0105,1.0083,1.0057,1.0033,1.0036,1.005,1.0042,1.0042,1.0025,1.0083,1.0089,1.0094,1.0111,1.0118,1.0029,1.0028,1.0028,1.0028,0,1.0341,1.0335,1.0346,1.0311,1.0299,1.0304,1.0256,1.025,1.022,1.019,1.0189,1.0157,1.0136,1.0135,1.0106,1.0133,1.0122,1.0092,1.0053,1.0108,1.0123,1.0129,1.0034,1.0033,1.0032,1.0031,0,0,1.0456,1.0392,1.0397,1.038,1.0337,1.0331,1.0332,1.0309,1.0305,1.0282,1.028,1.0265,1.0236,1.0222,1.019,1.0196,1.024,1.0165,1.0163,1.0178,1.0266,1.0288,1.0296,1.0217,1.0218,1.0219,1.0268,0,1.0514,1.0511,1.0467,1.0477,1.0469,1.0414,1.0415,1.0389,1.0361,1.035,1.0319,1.0308,1.0272,1.0263,1.0266,1.0234,1.0257,1.023,1.0215,1.0215,1.0223,1.0304,1.0328,1.0376,1.0274,1.0275,1.0276,0,1.0581,1.0559,1.0568,1.0522,1.0518,1.0519,1.0494,1.0485,1.0453,1.0432,1.0415,1.0378,1.0375,1.0339,1.0333,1.0316,1.0307,1.029,1.0291,1.0287,1.0248,1.0301,1.039,1.0397,1.0285,1.0284,1.0283,0,1.0661,1.0635,1.0636,1.0622,1.057,1.0572,1.0551,1.0517,1.0506,1.0484,1.0476,1.0455,1.0443,1.0427,1.0385,1.0363,1.0384,1.0345,1.0366,1.0367,1.0372,1.0372,1.046,1.0369,1.0369,1.0369,1.0368,0,1.073,1.0737,1.0671,1.0671,1.0677,1.0626,1.0633,1.0607,1.0577,1.0571,1.0523,1.0519,1.0464,1.0453,1.042,1.042,1.0415,1.0398,1.0389,1.0401,1.0403,1.0394,1.0389,1.037,1.037,1.037,1.0369,0,1.082,1.0777,1.0774,1.0724,1.0711,1.0717,1.0674,1.0673,1.0641,1.0634,1.0629,1.058,1.0564,1.052,1.0494,1.0472,1.048,1.0465,1.0491,1.0485,1.0507,1.0505,1.0591,1.0599,1.0505,1.0506,1.0507,0,1.0866,1.087,1.082,1.0812,1.0791,1.078,1.0767,1.0717,1.0706,1.0669,1.0672,1.0652,1.0633,1.0611,1.0573,1.0552,1.0534,1.0565,1.0531,1.0542,1.0532,1.0532,1.0531,1.0573,1.0574,1.0575,1.0576,0,1.0952,1.0929,1.0913,1.0888,1.0874,1.0852,1.0828,1.0824,1.0768,1.0758,1.0741,1.0726,1.0698,1.0679,1.0651,1.0629,1.0593,1.0587,1.0591,1.0603,1.0617,1.0608,1.051,1.0586,1.0585,1.0584,1.0583,1.0583,1.102,1.102,1.0984,1.0966,1.0942,1.092,1.0915,1.0882,1.0866,1.0838,1.081,1.0796,1.0762,1.0721,1.0701,1.0689,1.067,1.0676,1.0677,1.0679,1.0684,1.062,1.0684,1.0684,1.0684,1.0683,1.0683,0,1.1102,1.1075,1.106,1.1026,1.1012,1.0978,1.0949,1.0939,1.0927,1.0898,1.088,1.0859,1.084,1.0799,1.0776,1.0773,1.0756,1.0769,1.0768,1.0763,1.0703,1.0701,1.0783,1.0783,1.0783,1.0783,1.0783,1.0783,1.1143,1.114,1.1113,1.1097,1.107,1.1054,1.104,1.1019,1.0996,1.0974,1.0957,1.093,1.0896,1.087,1.085,1.0838,1.0831,1.0849,1.0832,1.0777,1.0767,1.0758,1.0756,1.0848,1.0848,1.0893,1.0893,1.0894]},{"header":{"parameterUnit":"m.s-1","parameterCategory":1,"la1":30.2991,"la2":30.254,"lo1":-89.0895,"lo2":-89.0444,"dy":0.0017,"dx":0.0017,"nx":28,"ny":28,"refTime":"2023-07-31T09:00:00:Z","depth":0,"parameterNumber":3,"parameterNumberName":"V-component_of_WINDS"},"data":[0,0,0,0,0,0,0,0,0,0,0,0,0,0,0,0,0,0,0,0,0,0,0,0,0,0,0,0,0,0,0,0,0,0,0,0,0,0,0,0,0,0,0,0,0,0,0,0,0,0,0,0,0,0,0,0,0,0,0.4137,0.4135,0,0.3888,0.3885,0.3882,0.3723,0.3723,0.3722,0.3721,0.3462,0.3456,0.345,0,0,0,0,0,0,0,0,0,0,0,0,0,0.4473,0.4467,0.4138,0.4134,0.4131,0.3888,0.3885,0.3882,0.3724,0.3722,0.3721,0.372,0.3464,0.3457,0.345,0,0,0,0,0,0,0,0,0,0,0,0,0,0.4286,0.4466,0.4138,0.4023,0.4011,0.3889,0.3885,0.3881,0.3724,0.3722,0.3721,0.372,0.3466,0.3458,0.3449,0.3421,0,0,0.3421,0.3417,0,0,0,0,0,0,0,0,0.4296,0.4273,0.4043,0.4031,0.4017,0.3835,0.3908,0.3726,0.3724,0.3833,0.3721,0.3719,0.3587,0.3568,0.3524,0.3409,0.3397,0.342,0.3415,0.3411,0.3408,0,0,0,0,0,0,0,0.431,0.4283,0.4039,0.404,0.4024,0.3983,0.3955,0.3873,0.3721,0.3823,0.3811,0.3784,0.3579,0.3533,0.3517,0.3394,0.342,0.3412,0.3407,0.3403,0.3239,0.324,0,0,0,0,0,0,0.4341,0.4295,0.4047,0.4031,0.4156,0.3978,0.3946,0.3895,0.3721,0.3693,0.3785,0.3777,0.3549,0.3528,0.3507,0.346,0.3411,0.3402,0.3397,0.3238,0.3239,0.324,0,0,0,0,0,0,0.4349,0.4321,0.4057,0.416,0.4123,0.3974,0.3917,0.3891,0.3844,0.3693,0.3664,0.3766,0.3547,0.352,0.3443,0.3449,0.3398,0.339,0.3237,0.3238,0.324,0.3369,0,0,0,0,0,0,0.4359,0.4324,0.4313,0.4161,0.4118,0.3998,0.3917,0.3887,0.383,0.3817,0.3667,0.3641,0.3544,0.3457,0.3434,0.3436,0.3383,0.3235,0.3237,0.3239,0.3363,0.3374,0.3384,0,0,0,0,0,0.4372,0.436,0.4314,0.4285,0.4102,0.3999,0.3974,0.3864,0.3831,0.3817,0.372,0.3646,0.3453,0.3451,0.3423,0.3422,0.3234,0.3237,0.3239,0.3358,0.3372,0.3384,0,0,0,0,0,0,0.4516,0.4338,0.4285,0.4223,0.4128,0.3972,0.3952,0.3883,0.3794,0.3786,0.3652,0.3619,0.3555,0.3481,0.3481,0.3385,0.3335,0.3332,0.3435,0.3447,0.3457,0.3475,0.3376,0,0,0,0,0,0.4541,0.4474,0.4321,0.4281,0.4236,0.4103,0.4054,0.3978,0.3873,0.3831,0.3727,0.3628,0.3544,0.3492,0.3407,0.3352,0.3316,0.3338,0.3349,0.3358,0.3356,0.3319,0.3326,0.3248,0.3248,0.3248,0,0,0.4591,0.4485,0.4451,0.4307,0.4224,0.4156,0.407,0.4002,0.3949,0.382,0.374,0.3662,0.3541,0.3474,0.344,0.3411,0.337,0.3361,0.337,0.3362,0.3322,0.333,0.3337,0.325,0.3249,0.3249,0,0,0.4647,0.4562,0.4517,0.4436,0.4312,0.4223,0.4213,0.4068,0.401,0.3929,0.383,0.3765,0.3624,0.3541,0.3481,0.3505,0.3432,0.3481,0.3535,0.35,0.3507,0.3511,0.3517,0.3521,0.348,0.3481,0.3481,0,0.4725,0.4619,0.4504,0.444,0.4379,0.426,0.4213,0.414,0.3994,0.3953,0.3923,0.3743,0.3654,0.3565,0.3571,0.3527,0.3509,0.3496,0.3515,0.3519,0.3521,0.3525,0.3528,0.3487,0.3486,0.3486,0.3485,0,0.4719,0.4647,0.4626,0.4488,0.4425,0.4371,0.4245,0.4195,0.4124,0.4038,0.3955,0.3843,0.3733,0.3706,0.3636,0.3607,0.3592,0.3541,0.3488,0.3537,0.3539,0.3539,0.3496,0.3494,0.3492,0.349,0,0,0.4857,0.4656,0.465,0.4585,0.4439,0.438,0.432,0.4212,0.417,0.4073,0.4017,0.3901,0.3852,0.3784,0.3703,0.3673,0.3696,0.3624,0.3619,0.3639,0.3653,0.3691,0.3694,0.3648,0.3648,0.3648,0.3662,0,0.4889,0.4775,0.4669,0.4592,0.4523,0.4409,0.4356,0.4259,0.4178,0.4105,0.4014,0.3933,0.3876,0.3833,0.3799,0.3701,0.3696,0.3698,0.3592,0.3589,0.3623,0.3695,0.3735,0.3754,0.3662,0.3662,0.3662,0,0.4911,0.4819,0.4736,0.4594,0.4561,0.4516,0.4407,0.4341,0.4228,0.417,0.4094,0.4009,0.3938,0.3894,0.3792,0.3796,0.3746,0.3692,0.369,0.3673,0.3627,0.3678,0.3758,0.376,0.3662,0.3662,0.3662,0,0.5017,0.4873,0.4803,0.4752,0.4586,0.4556,0.4485,0.4371,0.4313,0.4218,0.4178,0.4076,0.402,0.3942,0.3832,0.3811,0.374,0.3688,0.3688,0.3691,0.3676,0.3678,0.3746,0.365,0.365,0.365,0.365,0,0.5061,0.5014,0.4848,0.4806,0.4749,0.4627,0.4573,0.4492,0.4392,0.433,0.4226,0.417,0.4028,0.3955,0.3868,0.3795,0.3771,0.3721,0.3697,0.3728,0.3734,0.3692,0.3687,0.365,0.365,0.365,0.365,0,0.5169,0.5057,0.4973,0.4823,0.4784,0.4748,0.4619,0.4572,0.4485,0.4407,0.4382,0.4244,0.4152,0.4034,0.3905,0.3846,0.3782,0.3749,0.3821,0.3806,0.3812,0.3812,0.3853,0.3851,0.376,0.3761,0.3762,0,0.5204,0.5165,0.5011,0.4962,0.4894,0.4818,0.4757,0.4636,0.4577,0.4445,0.4414,0.4314,0.4227,0.4085,0.3972,0.3872,0.3833,0.3854,0.3817,0.3849,0.383,0.3832,0.3826,0.3863,0.3865,0.3866,0.3867,0,0.5277,0.5222,0.514,0.5038,0.4969,0.4882,0.4791,0.4757,0.4616,0.4555,0.4459,0.4392,0.426,0.4161,0.4046,0.3971,0.3895,0.388,0.3874,0.3904,0.3946,0.392,0.3843,0.3879,0.3878,0.3877,0.3876,0.3876,0.5346,0.5305,0.519,0.5101,0.5019,0.4936,0.4884,0.479,0.4709,0.4592,0.4525,0.4432,0.4318,0.4156,0.4084,0.4008,0.3979,0.3972,0.3969,0.3968,0.3977,0.3961,0.3987,0.3986,0.3986,0.3986,0.3985,0,0.5411,0.5331,0.525,0.5126,0.5055,0.4992,0.4887,0.4831,0.4751,0.4652,0.4569,0.4458,0.4362,0.4242,0.4136,0.4098,0.406,0.4074,0.4074,0.4058,0.401,0.4024,0.4107,0.4107,0.4107,0.4107,0.4107,0.4107,0.5436,0.5362,0.5295,0.5179,0.5098,0.5007,0.4952,0.4874,0.4794,0.4676,0.4595,0.4518,0.4409,0.4295,0.4203,0.417,0.4135,0.4159,0.4116,0.4072,0.4062,0.4051,0.4064,0.4153,0.4153,0.4169,0.4169,0.4169]}]]